Time,TemperatureF,DewpointF,PressureIn,WindDirection,WindDirectionDegrees,WindSpeedMPH,WindSpeedGustMPH,Humidity,HourlyPrecipIn,Conditions,Clouds,dailyrainin,SoftwareType,DateUTC
2013-03-10 00:01:00,32.5,25.8,30.25,ESE,109,1.0,1.0,76,0.00,,,0.00,Wunderground v.1.15,2013-03-10 05:01:00,
2013-03-10 00:11:00,31.7,25.6,30.25,East,97,1.0,3.0,78,0.00,,,0.00,Wunderground v.1.15,2013-03-10 05:11:00,
2013-03-10 00:21:00,32.4,26.0,30.25,East,96,1.0,1.0,77,0.00,,,0.00,Wunderground v.1.15,2013-03-10 05:21:00,
2013-03-10 00:31:00,31.9,25.8,30.24,ESE,117,1.0,3.0,78,0.00,,,0.00,Wunderground v.1.15,2013-03-10 05:31:00,
2013-03-10 00:41:00,31.0,24.9,30.24,SE,124,1.0,3.0,78,0.00,,,0.00,Wunderground v.1.15,2013-03-10 05:41:00,
2013-03-10 00:59:00,31.9,25.8,30.23,SE,124,0.0,3.0,78,0.00,,,0.00,Wunderground v.1.15,2013-03-10 05:59:00,
2013-03-10 01:10:00,31.5,25.7,30.23,SE,124,1.0,1.0,79,0.00,,,0.00,Wunderground v.1.15,2013-03-10 06:10:00,
2013-03-10 01:20:00,31.2,26.0,30.23,SSE,157,1.0,3.0,81,0.00,,,0.00,Wunderground v.1.15,2013-03-10 06:20:00,
2013-03-10 01:30:00,33.3,27.2,30.22,SSE,147,3.0,3.0,78,0.00,,,0.00,Wunderground v.1.15,2013-03-10 06:30:00,
2013-03-10 01:40:00,35.5,27.7,30.22,SSE,157,4.0,4.0,73,0.00,,,0.00,Wunderground v.1.15,2013-03-10 06:40:00,
2013-03-10 01:50:00,37.3,27.7,30.21,SE,142,5.0,7.0,68,0.00,,,0.00,Wunderground v.1.15,2013-03-10 06:50:00,
2013-03-10 03:00:00,38.3,27.9,30.21,SE,144,6.0,7.0,66,0.00,,,0.00,Wunderground v.1.15,2013-03-10 07:00:00,
2013-03-10 03:10:00,38.6,27.5,30.21,SE,124,6.0,6.0,64,0.00,,,0.00,Wunderground v.1.15,2013-03-10 07:10:00,
2013-03-10 03:20:00,39.1,27.6,30.20,SE,128,7.0,11.0,63,0.00,,,0.00,Wunderground v.1.15,2013-03-10 07:20:00,
2013-03-10 03:30:00,39.5,27.5,30.20,SSE,155,8.0,8.0,62,0.00,,,0.00,Wunderground v.1.15,2013-03-10 07:30:00,
2013-03-10 03:40:00,39.9,27.1,30.19,SE,139,8.0,8.0,60,0.00,,,0.00,Wunderground v.1.15,2013-03-10 07:40:00,
2013-03-10 03:50:00,40.0,26.8,30.19,SE,128,6.0,6.0,59,0.00,,,0.00,Wunderground v.1.15,2013-03-10 07:50:00,
2013-03-10 04:00:00,39.8,26.6,30.18,SE,136,5.0,5.0,59,0.00,,,0.00,Wunderground v.1.15,2013-03-10 08:00:00,
2013-03-10 04:10:00,39.0,26.3,30.18,SE,138,4.0,4.0,60,0.00,,,0.00,Wunderground v.1.15,2013-03-10 08:10:00,
2013-03-10 04:20:00,38.2,26.7,30.18,SSE,151,4.0,4.0,63,0.00,,,0.00,Wunderground v.1.15,2013-03-10 08:20:00,
2013-03-10 04:30:00,37.2,26.5,30.18,SE,130,3.0,3.0,65,0.00,,,0.00,Wunderground v.1.15,2013-03-10 08:30:00,
2013-03-10 04:40:00,36.4,26.5,30.18,SE,132,2.0,3.0,67,0.00,,,0.00,Wunderground v.1.15,2013-03-10 08:40:00,
2013-03-10 04:51:00,36.9,26.2,30.17,ESE,117,4.0,4.0,65,0.00,,,0.00,Wunderground v.1.15,2013-03-10 08:51:00,
2013-03-10 05:00:00,37.7,26.6,30.17,ESE,122,4.0,4.0,64,0.00,,,0.00,Wunderground v.1.15,2013-03-10 09:00:00,
2013-03-10 05:10:00,37.7,26.2,30.17,SE,125,5.0,7.0,63,0.00,,,0.00,Wunderground v.1.15,2013-03-10 09:10:00,
2013-03-10 05:21:00,37.8,26.7,30.17,SE,138,6.0,7.0,64,0.00,,,0.00,Wunderground v.1.15,2013-03-10 09:21:00,
2013-03-10 05:31:00,37.6,26.5,30.17,ESE,123,7.0,7.0,64,0.00,,,0.00,Wunderground v.1.15,2013-03-10 09:31:00,
2013-03-10 05:41:00,37.4,26.7,30.17,SE,144,5.0,8.0,65,0.00,,,0.00,Wunderground v.1.15,2013-03-10 09:41:00,
2013-03-10 05:51:00,37.3,26.6,30.16,SE,132,7.0,7.0,65,0.00,,,0.00,Wunderground v.1.15,2013-03-10 09:51:00,
2013-03-10 06:01:00,37.2,26.9,30.16,ESE,117,5.0,5.0,66,0.00,,,0.00,Wunderground v.1.15,2013-03-10 10:01:00,
2013-03-10 06:11:00,37.2,26.9,30.16,ESE,112,5.0,5.0,66,0.00,,,0.00,Wunderground v.1.15,2013-03-10 10:11:00,
2013-03-10 06:21:00,37.3,27.0,30.15,ESE,115,6.0,8.0,66,0.00,,,0.00,Wunderground v.1.15,2013-03-10 10:21:00,
2013-03-10 06:31:00,37.5,27.2,30.15,East,101,6.0,6.0,66,0.00,,,0.00,Wunderground v.1.15,2013-03-10 10:31:00,
2013-03-10 06:41:00,37.7,27.0,30.14,ESE,121,5.0,5.0,65,0.00,,,0.00,Wunderground v.1.15,2013-03-10 10:41:00,
2013-03-10 06:51:00,38.0,27.3,30.14,SE,126,4.0,12.0,65,0.00,,,0.00,Wunderground v.1.15,2013-03-10 10:51:00,
2013-03-10 07:00:00,38.3,27.2,30.15,ESE,119,4.0,4.0,64,0.00,,,0.00,Wunderground v.1.15,2013-03-10 11:00:00,
2013-03-10 07:10:00,38.5,27.0,30.15,ESE,105,4.0,4.0,63,0.00,,,0.00,Wunderground v.1.15,2013-03-10 11:10:00,
2013-03-10 07:20:00,38.7,27.2,30.14,ESE,111,4.0,12.0,63,0.00,,,0.00,Wunderground v.1.15,2013-03-10 11:20:00,
2013-03-10 07:30:00,39.1,27.2,30.14,ESE,105,4.0,4.0,62,0.00,,,0.00,Wunderground v.1.15,2013-03-10 11:30:00,
2013-03-10 07:40:00,39.3,27.4,30.15,SE,134,3.0,3.0,62,0.00,,,0.00,Wunderground v.1.15,2013-03-10 11:40:00,
2013-03-10 07:50:00,40.0,27.6,30.15,SE,143,4.0,4.0,61,0.00,,,0.00,Wunderground v.1.15,2013-03-10 11:50:00,
2013-03-10 08:00:00,40.9,27.7,30.15,SE,138,5.0,5.0,59,0.00,,,0.00,Wunderground v.1.15,2013-03-10 12:00:00,
2013-03-10 08:10:00,41.3,27.2,30.15,SE,143,4.0,4.0,57,0.00,,,0.00,Wunderground v.1.15,2013-03-10 12:10:00,
2013-03-10 08:20:00,41.9,27.3,30.15,SSE,151,4.0,12.0,56,0.00,,,0.00,Wunderground v.1.15,2013-03-10 12:20:00,
2013-03-10 08:31:00,43.0,27.0,30.15,SSE,154,5.0,12.0,53,0.00,,,0.00,Wunderground v.1.15,2013-03-10 12:31:00,
2013-03-10 08:41:00,43.3,26.8,30.14,SE,130,5.0,12.0,52,0.00,,,0.00,Wunderground v.1.15,2013-03-10 12:41:00,
2013-03-10 08:50:00,43.7,27.2,30.14,SSE,155,5.0,12.0,52,0.00,,,0.00,Wunderground v.1.15,2013-03-10 12:50:00,
2013-03-10 09:01:00,44.6,27.1,30.13,SE,134,6.0,6.0,50,0.00,,,0.00,Wunderground v.1.15,2013-03-10 13:01:00,
2013-03-10 09:11:00,45.3,26.7,30.14,SSE,163,6.0,12.0,48,0.00,,,0.00,Wunderground v.1.15,2013-03-10 13:11:00,
2013-03-10 09:21:00,45.8,26.7,30.13,SSE,154,7.0,12.0,47,0.00,,,0.00,Wunderground v.1.15,2013-03-10 13:21:00,
2013-03-10 09:31:00,46.3,26.6,30.13,SSE,151,7.0,12.0,46,0.00,,,0.00,Wunderground v.1.15,2013-03-10 13:31:00,
2013-03-10 09:41:00,46.4,27.2,30.13,SSE,155,6.0,12.0,47,0.00,,,0.00,Wunderground v.1.15,2013-03-10 13:41:00,
2013-03-10 09:51:00,46.7,27.0,30.14,SE,134,4.0,12.0,46,0.00,,,0.00,Wunderground v.1.15,2013-03-10 13:51:00,
2013-03-10 10:00:00,47.4,27.1,30.13,SSE,150,6.0,12.0,45,0.00,,,0.00,Wunderground v.1.15,2013-03-10 14:00:00,
2013-03-10 10:10:00,48.5,27.0,30.13,SSE,160,8.0,8.0,43,0.00,,,0.00,Wunderground v.1.15,2013-03-10 14:10:00,
2013-03-10 10:20:00,48.7,27.2,30.13,South,169,9.0,9.0,43,0.00,,,0.00,Wunderground v.1.15,2013-03-10 14:20:00,
2013-03-10 10:30:00,50.2,28.0,30.12,SSE,166,9.0,12.0,42,0.00,,,0.00,Wunderground v.1.15,2013-03-10 14:30:00,
2013-03-10 10:40:00,50.5,27.7,30.12,SE,144,11.0,14.0,41,0.00,,,0.00,Wunderground v.1.15,2013-03-10 14:40:00,
2013-03-10 10:50:00,50.6,27.7,30.12,SE,135,11.0,11.0,41,0.00,,,0.00,Wunderground v.1.15,2013-03-10 14:50:00,
2013-03-10 11:00:00,51.0,28.1,30.12,SSE,161,9.0,9.0,41,0.00,,,0.00,Wunderground v.1.15,2013-03-10 15:00:00,
2013-03-10 11:10:00,52.2,28.0,30.12,SE,141,8.0,15.0,39,0.00,,,0.00,Wunderground v.1.15,2013-03-10 15:10:00,
2013-03-10 11:20:00,53.9,28.2,30.12,SE,134,9.0,12.0,37,0.00,,,0.00,Wunderground v.1.15,2013-03-10 15:20:00,
2013-03-10 11:30:00,53.0,27.4,30.12,SE,134,10.0,10.0,37,0.00,,,0.00,Wunderground v.1.15,2013-03-10 15:30:00,
2013-03-10 11:40:00,53.4,27.8,30.11,SSE,168,8.0,8.0,37,0.00,,,0.00,Wunderground v.1.15,2013-03-10 15:40:00,
2013-03-10 11:50:00,53.5,27.2,30.11,SSE,156,9.0,12.0,36,0.00,,,0.00,Wunderground v.1.15,2013-03-10 15:50:00,
2013-03-10 12:00:00,54.1,28.4,30.11,South,175,9.0,12.0,37,0.00,,,0.00,Wunderground v.1.15,2013-03-10 16:00:00,
2013-03-10 12:11:00,54.7,30.2,30.11,SSE,156,8.0,8.0,39,0.00,,,0.00,Wunderground v.1.15,2013-03-10 16:11:00,
2013-03-10 12:21:00,55.9,30.6,30.10,SE,140,7.0,12.0,38,0.00,,,0.00,Wunderground v.1.15,2013-03-10 16:21:00,
2013-03-10 12:31:00,56.0,28.7,30.10,SSE,153,9.0,12.0,35,0.00,,,0.00,Wunderground v.1.15,2013-03-10 16:31:00,
2013-03-10 12:41:00,54.6,28.8,30.09,SE,133,8.0,8.0,37,0.00,,,0.00,Wunderground v.1.15,2013-03-10 16:41:00,
2013-03-10 12:51:00,54.6,29.5,30.09,SSE,153,8.0,12.0,38,0.00,,,0.00,Wunderground v.1.15,2013-03-10 16:51:00,
2013-03-10 13:01:00,54.7,30.2,30.09,SSE,155,8.0,8.0,39,0.00,,,0.00,Wunderground v.1.15,2013-03-10 17:01:00,
2013-03-10 13:11:00,54.7,28.9,30.09,South,172,8.0,8.0,37,0.00,,,0.00,Wunderground v.1.15,2013-03-10 17:11:00,
2013-03-10 13:21:00,55.3,30.7,30.08,SSE,165,8.0,8.0,39,0.00,,,0.00,Wunderground v.1.15,2013-03-10 17:21:00,
2013-03-10 13:31:00,55.5,29.6,30.08,SSE,151,7.0,7.0,37,0.00,,,0.00,Wunderground v.1.15,2013-03-10 17:31:00,
2013-03-10 13:41:00,56.3,31.6,30.08,SE,141,6.0,14.0,39,0.00,,,0.00,Wunderground v.1.15,2013-03-10 17:41:00,
2013-03-10 13:51:00,57.6,31.5,30.08,SSW,202,6.0,14.0,37,0.00,,,0.00,Wunderground v.1.15,2013-03-10 17:51:00,
2013-03-10 14:00:00,58.5,32.3,30.07,South,188,7.0,7.0,37,0.00,,,0.00,Wunderground v.1.15,2013-03-10 18:00:00,
2013-03-10 14:10:00,58.4,29.4,30.07,South,189,8.0,14.0,33,0.00,,,0.00,Wunderground v.1.15,2013-03-10 18:10:00,
2013-03-10 14:20:00,58.0,29.0,30.06,South,175,9.0,14.0,33,0.00,,,0.00,Wunderground v.1.15,2013-03-10 18:20:00,
2013-03-10 14:30:00,58.0,29.0,30.06,SSW,211,8.0,8.0,33,0.00,,,0.00,Wunderground v.1.15,2013-03-10 18:30:00,
2013-03-10 14:40:00,57.8,30.3,30.06,South,186,8.0,8.0,35,0.00,,,0.00,Wunderground v.1.15,2013-03-10 18:40:00,
2013-03-10 14:50:00,58.5,30.9,30.05,SSE,165,8.0,8.0,35,0.00,,,0.00,Wunderground v.1.15,2013-03-10 18:50:00,
2013-03-10 15:01:00,58.8,29.7,30.05,South,170,8.0,14.0,33,0.00,,,0.00,Wunderground v.1.15,2013-03-10 19:01:00,
2013-03-10 15:11:00,59.4,30.3,30.04,SSE,164,8.0,8.0,33,0.00,,,0.00,Wunderground v.1.15,2013-03-10 19:11:00,
2013-03-10 15:21:00,60.0,30.0,30.04,SSE,154,8.0,8.0,32,0.00,,,0.00,Wunderground v.1.15,2013-03-10 19:21:00,
2013-03-10 15:31:00,61.3,31.2,30.04,SSE,154,7.0,14.0,32,0.00,,,0.00,Wunderground v.1.15,2013-03-10 19:31:00,
2013-03-10 15:41:00,59.2,29.3,30.03,SSE,148,11.0,11.0,32,0.00,,,0.00,Wunderground v.1.15,2013-03-10 19:41:00,
2013-03-10 15:52:00,59.1,30.0,30.03,SSE,158,11.0,11.0,33,0.00,,,0.00,Wunderground v.1.15,2013-03-10 19:52:00,
2013-03-10 16:00:00,58.5,30.2,30.02,SSE,152,10.0,14.0,34,0.00,,,0.00,Wunderground v.1.15,2013-03-10 20:00:00,
2013-03-10 16:10:00,59.3,30.9,30.01,SSE,152,10.0,14.0,34,0.00,,,0.00,Wunderground v.1.15,2013-03-10 20:10:00,
2013-03-10 16:20:00,60.1,30.9,30.01,South,169,8.0,14.0,33,0.00,,,0.00,Wunderground v.1.15,2013-03-10 20:20:00,
2013-03-10 16:30:00,60.4,32.6,30.01,SSE,152,10.0,10.0,35,0.00,,,0.00,Wunderground v.1.15,2013-03-10 20:30:00,
2013-03-10 17:01:00,59.7,31.3,30.00,SSE,148,9.0,14.0,34,0.00,,,0.00,Wunderground v.1.15,2013-03-10 21:01:00,
2013-03-10 17:11:00,59.9,31.4,30.00,SSE,148,9.0,14.0,34,0.00,,,0.00,Wunderground v.1.15,2013-03-10 21:11:00,
2013-03-10 17:41:00,59.0,31.4,30.00,SSE,161,8.0,14.0,35,0.00,,,0.00,Wunderground v.1.15,2013-03-10 21:41:00,
2013-03-10 18:10:00,58.0,30.5,29.99,ESE,120,8.0,14.0,35,0.00,,,0.00,Wunderground v.1.15,2013-03-10 22:10:00,
2013-03-10 19:10:00,55.7,29.8,30.00,SSE,157,7.0,14.0,37,0.00,,,0.00,Wunderground v.1.15,2013-03-10 23:10:00,
2013-03-10 19:41:00,54.6,30.1,30.01,South,172,6.0,6.0,39,0.00,,,0.00,Wunderground v.1.15,2013-03-10 23:41:00,
2013-03-10 19:51:00,53.4,30.9,30.03,SE,145,4.0,14.0,42,0.00,,,0.00,Wunderground v.1.15,2013-03-10 23:51:00,
2013-03-10 20:00:00,52.3,30.4,30.03,SE,131,4.0,14.0,43,0.00,,,0.00,Wunderground v.1.15,2013-03-11 00:00:00,
2013-03-10 21:01:00,52.5,30.6,30.03,SSE,153,6.0,14.0,43,0.00,,,0.00,Wunderground v.1.15,2013-03-11 01:01:00,
2013-03-10 21:11:00,52.3,31.0,30.03,SSE,147,5.0,5.0,44,0.00,,,0.00,Wunderground v.1.15,2013-03-11 01:11:00,
2013-03-10 21:21:00,51.5,30.8,30.04,SSE,148,3.0,14.0,45,0.00,,,0.00,Wunderground v.1.15,2013-03-11 01:21:00,
2013-03-10 21:31:00,51.0,30.9,30.03,SE,140,5.0,14.0,46,0.00,,,0.00,Wunderground v.1.15,2013-03-11 01:31:00,
2013-03-10 21:41:00,51.1,31.0,30.04,SE,137,5.0,14.0,46,0.00,,,0.00,Wunderground v.1.15,2013-03-11 01:41:00,
2013-03-10 22:00:00,50.8,31.3,30.04,SE,144,5.0,14.0,47,0.00,,,0.00,Wunderground v.1.15,2013-03-11 02:00:00,
2013-03-10 22:10:00,51.1,31.6,30.04,SE,131,6.0,14.0,47,0.00,,,0.00,Wunderground v.1.15,2013-03-11 02:10:00,
2013-03-10 22:20:00,51.1,31.6,30.04,SSE,155,6.0,6.0,47,0.00,,,0.00,Wunderground v.1.15,2013-03-11 02:20:00,
2013-03-10 22:30:00,51.3,31.7,30.04,SE,134,7.0,7.0,47,0.00,,,0.00,Wunderground v.1.15,2013-03-11 02:30:00,
2013-03-10 22:40:00,51.1,31.6,30.03,SSE,152,6.0,14.0,47,0.00,,,0.00,Wunderground v.1.15,2013-03-11 02:40:00,
2013-03-10 22:50:00,51.2,31.1,30.03,SSE,159,6.0,14.0,46,0.00,,,0.00,Wunderground v.1.15,2013-03-11 02:50:00,
2013-03-10 23:00:00,51.0,31.5,30.04,SE,140,5.0,14.0,47,0.00,,,0.00,Wunderground v.1.15,2013-03-11 03:00:00,
2013-03-10 23:10:00,50.6,31.6,30.02,SE,135,5.0,14.0,48,0.00,,,0.00,Wunderground v.1.15,2013-03-11 03:10:00,
2013-03-10 23:20:00,50.8,31.3,30.01,SE,136,6.0,14.0,47,0.00,,,0.00,Wunderground v.1.15,2013-03-11 03:20:00,
2013-03-10 23:31:00,51.2,31.1,30.00,SE,133,7.0,14.0,46,0.00,,,0.00,Wunderground v.1.15,2013-03-11 03:31:00,
2013-03-10 23:41:00,51.5,30.8,30.00,SSE,162,6.0,14.0,45,0.00,,,0.00,Wunderground v.1.15,2013-03-11 03:41:00,
2013-03-10 23:51:00,51.7,31.0,30.00,SE,136,6.0,6.0,45,0.00,,,0.00,Wunderground v.1.15,2013-03-11 03:51:00,